EA3GYL La Torregassa ES current weather conditions

sailwx.info

Wind from 199 at 2 knots gusting 6

Air temperature 13.3° C
Dewpoint 10.7° C

Last reported at 2016-Apr-29 18:40 UTC.
Time now 2016-Apr-29 19:43 UTC

Location: N 41°17' E 001°31'.
View on Google Maps.

See reports from other nearby stations

  
Tides and Currents Weather Stations Pressure Air Temp Water Temp Dewpoint Dewpoint Depression Visibility Wind Speed Wind Dir Waves Ship Positions
date/time (UTC)wind fromknots sea level pressurealtimeterstation pressurevisibilityair tempwater tempwave heightnotes
2016-Apr-29 18:40 199 2 gusting 6 13.3
2016-Apr-29 18:30 186 2 gusting 5 13.3
2016-Apr-29 18:20 195 3 gusting 8 13.3
2016-Apr-29 18:10 202 4 gusting 8 13.9
2016-Apr-29 18:00 203 3 gusting 6 13.9
2016-Apr-29 17:50 190 3 gusting 6 14.4
2016-Apr-29 17:40 181 3 gusting 7 14.4
2016-Apr-29 17:30 161 3 gusting 8 14.4
2016-Apr-29 17:20 165 4 gusting 9 14.4
2016-Apr-29 17:10 158 5 gusting 9 14.4
2016-Apr-29 17:00 155 4 gusting 9 15.0
2016-Apr-29 16:50 169 4 gusting 8 15.6
2016-Apr-29 16:40 154 4 gusting 7 15.6
2016-Apr-29 16:30 167 3 gusting 7 15.6
2016-Apr-29 16:20 161 3 gusting 9 15.6
2016-Apr-29 16:10 165 4 gusting 7 15.6
2016-Apr-29 16:00 171 5 gusting 10 15.6
2016-Apr-29 15:50 168 4 gusting 9 15.6
2016-Apr-29 15:40 138 5 gusting 9 15.6
2016-Apr-29 15:30 151 6 gusting 10 16.1
2016-Apr-29 15:20 146 5 gusting 10 16.7
2016-Apr-29 15:10 163 5 gusting 8 16.7
2016-Apr-29 15:00 163 6 gusting 10 16.7
2016-Apr-29 14:50 157 5 gusting 10 16.7
2016-Apr-29 14:40 138 5 gusting 10 16.7
2016-Apr-29 14:30 143 5 gusting 12 16.7
2016-Apr-29 14:20 183 4 gusting 8 16.7
2016-Apr-29 14:10 154 4 gusting 9 16.1
2016-Apr-29 14:00 124 5 gusting 11 16.1
2016-Apr-29 13:50 121 6 gusting 11 16.1
2016-Apr-29 13:40 115 6 gusting 11 16.1
2016-Apr-29 13:30 108 5 gusting 11 16.7
2016-Apr-29 13:20 110 5 gusting 10 16.7
2016-Apr-29 13:10 106 5 gusting 11 16.7
2016-Apr-29 13:00 110 4 gusting 10 16.7
2016-Apr-29 12:50 119 4 gusting 7 16.7
2016-Apr-29 12:40 111 4 gusting 8 16.7
2016-Apr-29 12:30 113 3 gusting 10 16.1
2016-Apr-29 12:20 110 4 gusting 7 16.7
2016-Apr-29 12:10 119 4 gusting 7 16.7
2016-Apr-29 12:00 126 3 gusting 9 16.7
2016-Apr-29 11:50 121 4 gusting 8 16.7
2016-Apr-29 11:40 112 4 gusting 9 16.1
2016-Apr-29 11:30 138 4 gusting 8 16.7
2016-Apr-29 11:20 128 5 gusting 11 16.7
2016-Apr-29 11:00 128 3 gusting 8 16.7
2016-Apr-29 10:50 110 4 gusting 9 16.7
2016-Apr-29 10:40 131 3 gusting 9 16.7
2016-Apr-29 10:30 134 5 gusting 8 16.7
2016-Apr-29 10:20 143 3 gusting 7 16.7
2016-Apr-29 10:10 131 3 gusting 6 16.7
2016-Apr-29 10:00 133 0 gusting 4 16.7
2016-Apr-29 09:50 122 1 gusting 6 16.7
2016-Apr-29 09:40 111 2 gusting 5 16.7
2016-Apr-29 09:30 084 1 gusting 4 15.6
2016-Apr-29 09:20 060 0 gusting 3 15.6
2016-Apr-29 09:10 063 1 gusting 3 15.0
2016-Apr-29 09:00 068 2 gusting 6 15.0
2016-Apr-29 08:50 064 2 gusting 5 15.6
2016-Apr-29 08:40 050 3 gusting 4 15.6
2016-Apr-29 07:52 083 0 gusting 3 13.9
2016-Apr-29 06:45 178 10.6
2016-Apr-29 05:37 204 9.4
2016-Apr-29 04:29 204 8.3
2016-Apr-29 03:21 204 10.0
2016-Apr-29 02:14 224 1 gusting 5 11.1
2016-Apr-29 01:04 255 3 gusting 7 10.6
2016-Apr-28 23:50 243 0 gusting 2 10.0
2016-Apr-28 23:40 265 1 gusting 3 10.6
2016-Apr-28 23:30 269 0 gusting 2 10.6
2016-Apr-28 23:20 268 1 gusting 3 10.6
2016-Apr-28 23:10 269 1 gusting 3 10.6
2016-Apr-28 23:00 264 0 gusting 2 10.0
2016-Apr-28 22:50 252 0 gusting 1 9.4
2016-Apr-28 22:40 249 1 gusting 2 9.4
2016-Apr-28 22:30 238 0 gusting 2 10.0
2016-Apr-28 22:20 256 0 gusting 2 10.0
2016-Apr-28 22:10 262 0 gusting 1 10.0
2016-Apr-28 22:00 270 0 gusting 2 10.0
2016-Apr-28 21:50 266 1 gusting 3 10.6
2016-Apr-28 21:40 264 1 gusting 3 10.6
2016-Apr-28 21:30 263 1 gusting 3 10.6
2016-Apr-28 21:20 260 1 gusting 3 10.6
2016-Apr-28 21:10 251 0 gusting 2 11.1
2016-Apr-28 21:00 251 0 gusting 1 11.1
2016-Apr-28 20:50 11.1
2016-Apr-28 20:40 250 0 gusting 2 11.1
2016-Apr-28 20:30 256 0 gusting 2 11.1
2016-Apr-28 20:20 250 0 gusting 1 11.1
2016-Apr-28 20:10 250 0 gusting 1 11.1
2016-Apr-28 20:00 11.1
2016-Apr-28 19:50 11.7
2016-Apr-28 19:40 250 0 gusting 2 11.7
2016-Apr-28 19:30 11.7
2016-Apr-28 19:20 11.7
2016-Apr-28 19:10 11.7
2016-Apr-28 19:00 248 0 gusting 2 11.7
2016-Apr-28 18:50 248 1 gusting 3 11.7
2016-Apr-28 18:40 11.7
2016-Apr-28 18:30 220 0 gusting 1 11.7
2016-Apr-28 18:20 222 0 gusting 2 11.7
2016-Apr-28 18:10 223 0 gusting 2 11.7
2016-Apr-28 18:00 227 0 gusting 2 11.7
2016-Apr-28 17:50 226 1 gusting 2 11.7
2016-Apr-28 17:40 221 1 gusting 3 11.7
2016-Apr-28 17:30 223 1 gusting 3 11.7
2016-Apr-28 17:20 225 1 gusting 4 11.7
2016-Apr-28 17:10 225 1 gusting 4 12.2
2016-Apr-28 17:00 225 0 gusting 3 12.2
2016-Apr-28 16:50 228 1 gusting 4 11.7
2016-Apr-28 16:40 233 0 gusting 3 11.7
2016-Apr-28 16:30 229 0 gusting 1 11.7
2016-Apr-28 16:20 223 1 gusting 3 11.7
2016-Apr-28 16:10 235 0 gusting 3 11.7
2016-Apr-28 16:00 234 1 gusting 4 11.7
2016-Apr-28 15:50 234 1 gusting 4 11.7
2016-Apr-28 15:40 230 1 gusting 4 11.7
2016-Apr-28 15:30 209 0 gusting 3 11.7
2016-Apr-28 15:20 216 0 gusting 2 11.7
2016-Apr-28 15:10 210 0 gusting 2 11.7
2016-Apr-28 15:00 220 0 gusting 2 11.7
2016-Apr-28 14:50 228 0 gusting 2 11.1
2016-Apr-28 14:40 231 0 gusting 2 11.1
2016-Apr-28 14:30 234 1 gusting 2 11.1
2016-Apr-28 14:20 231 0 gusting 2 11.1
2016-Apr-28 14:10 11.1
2016-Apr-28 14:00 11.1
2016-Apr-28 13:50 206 0 gusting 2 11.1
2016-Apr-28 13:40 181 0 gusting 2 11.1
2016-Apr-28 13:30 203 0 gusting 2 11.1
2016-Apr-28 13:20 139 0 gusting 1 11.1
2016-Apr-28 13:10 124 0 gusting 2 11.1
2016-Apr-28 13:00 115 0 gusting 2 11.1
2016-Apr-28 12:50 11.1
2016-Apr-28 12:40 11.1
2016-Apr-28 12:30 11.1
2016-Apr-28 10:20 026 1 gusting 6 10.6
2016-Apr-28 10:10 025 2 gusting 6 11.1
2016-Apr-28 10:00 016 1 gusting 5 11.1
2016-Apr-28 09:50 002 2 gusting 6 10.6
2016-Apr-28 09:40 018 3 gusting 7 10.6
2016-Apr-28 09:30 027 1 gusting 5 10.6
2016-Apr-28 09:20 023 1 gusting 6 10.0
2016-Apr-28 08:40 10.0
2016-Apr-28 08:30 10.0
2016-Apr-28 08:16 002 10.0
2016-Apr-28 07:21 357 10.0
2016-Apr-28 06:08 344 10.0
2016-Apr-28 04:57 338 0 gusting 5 10.0
2016-Apr-28 03:49 344 1 gusting 5 10.0
2016-Apr-28 02:34 029 0 gusting 6 10.0
2016-Apr-28 01:24 030 11.1
2016-Apr-28 00:14 267 0 gusting 4 10.6
2016-Apr-27 23:46 010 10.6
2016-Apr-27 23:30 012 2 gusting 6 10.6
2016-Apr-27 23:14 004 1 gusting 4 10.6
2016-Apr-27 22:57 020 0 gusting 2 10.6
2016-Apr-27 22:41 042 0 gusting 2 10.6
2016-Apr-27 22:24 019 0 gusting 3 10.6
2016-Apr-27 20:10 016 0 gusting 3 12.2
2016-Apr-27 20:00 026 0 gusting 3 12.2
2016-Apr-27 19:50 053 0 gusting 3 12.2
2016-Apr-27 19:40 12.2
2016-Apr-27 19:30 071 0 gusting 4 12.2
2016-Apr-27 19:20 062 0 gusting 5 12.2
2016-Apr-27 19:10 070 0 gusting 2 12.2
2016-Apr-27 19:00 074 1 gusting 3 12.2